Terminal Aerodrome Forecast
Issued by NWS Portland, OR

Home | Current Version | Previous Version | Text Only | Print | Product List | Glossary On
Versions: 1 2 3 4 5 6 7 8 9 10 11 12 13 14 15 16 17 18 19 20 21 22 23 24 25 26 27 28 29 30 31 32 33 34 35 36 37 38 39 40 41 42 43
831
FTUS46 KPQR 140532
TAFHIO
TAF
KHIO 140532Z 1406/1506 17010KT 6SM -RA BR BKN015 OVC025
     FM142200 21006KT P6SM -RA SCT015 OVC030=

USA.gov is the U.S. government's official web portal to all federal, state and local government web resources and services.